Simultaneous Nadir Overpasses (SNOs) Predictions

Prediction of SNOs between AQUA and METOP-B Satellite Orbit:

Table of predicted SNOs for the next 14.0 days since TLE Epoch: 4/10/2021
Index Date (AQUA) Time (AQUA) Lat,Lon (AQUA) SZA (AQUA ) Date (METOP-B) Time (METOP-B) Lat,Lon (METOP-B) SZA (METOP-B ) Distance(km) Time Diff (sec)
1 04/10/2021 20:27:25 -73.85, 47.34 114.42 04/10/2021 20:26:56 -73.84, 47.43 114.42 2.83 29
2 04/10/2021 21:16:54 73.91,-145.15 65.64 04/10/2021 21:17:35 73.91,-145.08 65.63 2.18 41
3 04/13/2021 16:01:39 -73.82, 113.83 115.47 04/13/2021 16:01:17 -73.83, 113.80 115.46 1.08 22
4 04/13/2021 16:51:08 73.89, -78.67 64.59 04/13/2021 16:51:56 73.89, -78.72 64.59 1.37 48
5 04/16/2021 10:46:16 73.20, 13.95 62.87 04/16/2021 10:45:10 73.14, 11.33 62.91 84.84 66
6 04/16/2021 11:35:54 -73.86,-179.80 116.45 04/16/2021 11:35:37 -73.86,-179.71 116.44 2.84 17
7 04/16/2021 12:25:23 73.93, -12.32 63.62 04/16/2021 12:26:16 73.92, -12.23 63.60 2.81 53
8 04/19/2021 06:20:35 73.45, 79.86 62.15 04/19/2021 06:19:25 73.42, 78.35 62.18 48.02 70
9 04/19/2021 07:10:08 -73.84,-113.33 117.45 04/19/2021 07:09:58 -73.84,-113.35 117.45 0.64 10
10 04/19/2021 07:59:36 73.92, 54.13 62.63 04/19/2021 08:00:36 73.90, 54.12 62.60 2.62 60
11 04/22/2021 01:54:53 73.72, 145.75 61.47 04/22/2021 01:53:40 73.65, 145.28 61.43 16.49 73
12 04/22/2021 02:44:21 -73.84, -46.88 118.42 04/22/2021 02:44:17 -73.87, -46.87 118.39 3.20 4



Historial Predications of SNOs between AQUA and METOP-B
